Location: Bern�tre
(50.1974°N, 2.0915°E)
Time: 08:43:30
(UTC+00:00)

Cosmos 1842 - Pass Details

Date: 18 September 2020
Orbit: 521 x 536 km, 82.5° (Epoch: 24 October)

Event Time Altitude Azimuth Distance (km) Brightness Sun altitude
Rises 19:00:42 0° 344° (NNW) 2,664 7.3 -10.8°
Reaches altitude 10° 19:02:54 10° 339° (NNW) 1,771 6.4 -11.1°
Maximum altitude 19:06:36 45° 266° (W) 722 4.4 -11.7°
Drops below altitude 10° 19:10:18 10° 193° (SSW) 1,758 5.9 -12.2°
Sets 19:12:29 0° 187° (S) 2,642 6.7 -12.6°
